Location: Libas
(9.8833°N, 125.9833°E)
Time: 20:15:59
(UTC+00:00)

CZ-4B R/B - Pass Details

Date: 27 October 2020
Orbit: 489 x 649 km, 97.9° (Epoch: 25 November)

Event Time Altitude Azimuth Distance (km) Brightness Sun altitude
Rises 20:29:30 0° 10° (N) 2,830 6.4 -14.4°
Reaches altitude 10° 20:31:37 10° 9° (N) 1,951 5.6 -13.9°
Maximum altitude 20:35:53 81° 281° (WNW) 635 3.0 -12.8°
Drops below altitude 10° 20:40:19 10° 195° (SSW) 2,024 5.7 -11.8°
Sets 20:42:33 0° 194° (SSW) 2,944 6.5 -11.2°
